Location: Unspecified
(42.3650°N, 71.1030°W)
Time: 22:15:25
(UTC+00:00)

Vanguard 3 - Visible Passes

Search period start: 25 June 2024 00:00
Search period end: 05 July 2024 00:00
Orbit: 509 x 3231 km, 33.3° (Epoch: 25 June)

Date Brightness Start Highest point End Pass type
(mag) Time Alt. Az. Time Alt. Az. Time Alt. Az.
26 Jun 11.3 08:39:24 10° SSE 08:42:34 11° SE 08:45:34 10° SE visible
28 Jun 11.3 08:09:42 10° SSE 08:16:57 14° SE 08:23:22 10° ESE visible
30 Jun 11.2 07:41:28 10° S 07:51:08 16° SE 07:59:36 10° ESE visible
01 Jul 10.8 08:30:29 10° SSW 08:45:00 28° SSE 08:56:26 10° E visible
02 Jul 11.1 07:13:48 10° S 07:25:08 19° SE 07:35:12 10° ESE visible
03 Jul 10.8 08:03:26 10° SSW 08:18:54 31° SSE 08:31:35 10° E visible
04 Jul 11.0 06:47:45 12° S 06:58:57 21° SE 07:10:22 10° E visible
